{"data":{"norad_id":45675,"intl_designator":"2020-035U","name":"STARLINK-1458","alt_names":[],"object_type":"PAYLOAD","status":"ACTIVE","operator":null,"country":"US","launch_date":"2020-06-04","launch_site_code":"AFETR","launch_vehicle":null,"mission":null,"orbit_class":"UNKNOWN","rcs_meters":null,"size_class":null,"mass_kg":null,"dimensions":null,"purposes":["comms"],"wikipedia_slug":null,"has_3d_model":false,"image_url":null,"decayed_at":null,"tle_current":{"epoch":"2026-05-25T03:40:41.382336Z","epoch_age_seconds":57884,"freshness":"FRESH","line1":"1 45675U 20035U   26145.15325674  .00089501  00000+0  13400-2 0  9990","line2":"2 45675  53.0467  49.3396 0004620  56.0766 304.0682 15.54237976330705","mean_motion":15.54237976,"eccentricity":0.000462,"inclination_deg":53.0467,"raan_deg":49.3396,"arg_perigee_deg":56.0766,"mean_anomaly_deg":304.0682,"bstar":0.00134,"rev_number":33070,"period_min":92.64990446997,"perigee_km":401.23512646883,"apogee_km":407.50216168395,"semimajor_km":6782.5056440764,"source":"CELESTRAK","updated_at":"2026-05-25T13:38:16.428024Z"}}}